Location: Unspecified
(0.0000°N, 0.0000°E)
Time: 08:44:48
(UTC+00:00)

Transit 4A - Pass Details

Date: 06 June 2022
Orbit: 864 x 980 km, 66.8° (Epoch: 24 June)

Event Time Altitude Azimuth Distance (km) Brightness Sun altitude
Rises 11:02:40 0° 353° (N) 3,527 11.2 63.5°
Reaches altitude 10° 11:05:20 10° 0° (N) 2,570 10.7 63.9°
Maximum altitude 11:10:55 42° 70° (ENE) 1,234 9.7 64.5°
Drops below altitude 10° 11:16:22 10° 140° (SE) 2,519 10.2 65.1°
Sets 11:18:57 0° 147° (SSE) 3,450 10.7 65.3°
